This is the latest recevied weather packets stored in our database for station/object VA7NIC-10. If no packets are shown the sender has not sent any weather packets the latest 10 day(s).
| Time | Temp. | Humidity | Pressure | Rain* | Wind** | Luminosity | Snow |
|---|---|---|---|---|---|---|---|
| 1777896421 | 12.78° C | 70% | 1009 hPa | 0 mm | - | - | - |
| 1777895521 | 12.78° C | 69% | 1009 hPa | 0 mm | - | - | - |
| 1777894621 | 12.78° C | 69% | 1008.9 hPa | 0 mm | - | - | - |
| 1777893721 | 13.33° C | 68% | 1009 hPa | 0 mm | - | - | - |
| 1777892821 | 13.33° C | 68% | 1008.9 hPa | 0 mm | - | - | - |
| 1777891921 | 13.33° C | 68% | 1008.8 hPa | 0 mm | - | - | - |
| 1777891022 | 13.33° C | 67% | 1009 hPa | 0 mm | - | - | - |
| 1777890122 | 13.89° C | 68% | 1008.9 hPa | 0 mm | - | - | - |
| 1777889222 | 13.89° C | 66% | 1008.9 hPa | 0 mm | - | - | - |
| 1777888322 | 13.89° C | 66% | 1008.9 hPa | 0 mm | - | - | - |
| 1777887422 | 14.44° C | 64% | 1008.8 hPa | 0 mm | - | - | - |
| 1777886522 | 14.44° C | 63% | 1008.7 hPa | 0 mm | - | - | - |
| 1777885622 | 15° C | 62% | 1008.8 hPa | 0 mm | - | - | - |
| 1777884722 | 15° C | 60% | 1008.8 hPa | 0 mm | - | - | - |
| 1777883821 | 15.56° C | 58% | 1008.9 hPa | 0 mm | - | - | - |
| 1777882921 | 15.56° C | 58% | 1008.9 hPa | 0 mm | - | - | - |
| 1777882021 | 16.11° C | 55% | 1008.9 hPa | 0 mm | - | - | - |
| 1777881121 | 16.11° C | 55% | 1008.9 hPa | 0 mm | - | - | - |
| 1777880221 | 16.67° C | 54% | 1008.8 hPa | 0 mm | - | - | - |
| 1777879321 | 16.67° C | 54% | 1008.7 hPa | 0 mm | - | - | - |
| 1777878421 | 17.22° C | 53% | 1008.8 hPa | 0 mm | - | - | - |
| 1777877521 | 17.22° C | 51% | 1008.8 hPa | 0 mm | - | - | - |
| 1777876622 | 17.78° C | 50% | 1008.7 hPa | 0 mm | - | - | - |
| 1777875722 | 18.33° C | 48% | 1008.7 hPa | 0 mm | - | - | - |
| 1777874822 | 18.33° C | 46% | 1008.8 hPa | 0 mm | - | - | - |
* Rain latest hour (hover to see other rain measurements)
** Current wind speed in m/s (hover to see current wind gust speed)